Weather in Rosstani

Russia / Oryol Oblast     52°20′40″N   37°31′14″E
temp.,
°C
wind,
m/s
gust,
m/s
humid.,
%
clouds,
%
prec.,
mm/h
press.,
hPa
HPBL,
m
27 january, thu
thu2700:00−13nw119783 0.1 101810
03:00−15nw1110087 0.2 10199
06:00−13nw229796 0.1 101942
09:00−16wnw119981 0.1 10209
12:00−11sw119471 0.1 101985
15:00−11ssw2296100 0.1 101841
18:00−13s3496100 0.0 101860
21:00−15s379754 0.0 101783
28 january, fri
fri2800:00−16s499858 0.0 1016113
03:00−15s4119771 0.0 1015179
06:00−12s5129596 0.1 1012253
09:00−10s61295100 0.2 1011280
12:00−7s61394100 0.2 1009362
15:00−4s61295100 0.7 1007497
18:00−3s61395100 0.6 1006463
21:00−2ssw4109675 0.8 1005335
29 january, sat
sat2900:00−2ssw499694 0.3 1005353
03:00−2ssw4997100 0.4 1005336
06:00−3s499797 0.3 1005275
09:00−3s499765 0.5 1005273
12:00−2ssw369673 0.1 1005308
15:00−1sw259798 0.2 1005308
18:00−1wsw489793 0.6 1006318
21:00−4w6109587 0.9 1007323
30 january, sun
sun3000:00−6w5109586 0.2 1009279
03:00−8w4109596 0.3 1009278
06:00−10ssw4997100 0.1 1007154
09:00−6ssw71492100 0.1 1004503
12:00−5ssw81787100 0.1 1001913
15:00−4ssw101894100 1.4 9961043
18:00−3ssw91794100 0.8 994760
21:00−2ssw71594100 1.6 992642
31 january, mon
mon3100:00−1ssw8139093 0.1 991686
03:00−1s81591100 0.4 989709
06:00−2s91696100 0.4 987920
09:00−1s81496100 1.1 986850
12:00−1sw7119398 0.6 987770
15:00−1wsw61195100 0.9 988781
18:00−4wsw8158994 0.3 992584
21:00−6w71390100 0.4 996543